Weather History for Grand Island, NE

Change the Weather History Date:

Tuesday, June 11, 2013

  Actual Average Record
Temperature  
Mean Temperature 86 °F 70 °F  
Max Temperature 99 °F 82 °F 107 °F (1933)
Min Temperature 72 °F 58 °F 39 °F (1903)
Degree Days  
Heating Degree Days 0 1  
Month to date heating degree days 21 16  
Since 1 June heating degree days 21 16  
Since 1 July heating degree days 6133 6191  
Cooling Degree Days 21 6  
Month to date cooling degree days 36 53  
Year to date cooling degree days 131 118  
Since 1 June cooling degree days 36 53  
Growing Degree Days 34 (Base 50)    
Moisture  
Dew Point 59 °F    
Average Humidity 52    
Maximum Humidity 79    
Minimum Humidity 24    
Precipitation  
Precipitation T in 0.15 in 1.69 in (1967)
Month to date precipitation 0.13 1.70  
Year to date precipitation 13.50 11.65  
Snow  
Snow 0.00 in 0.00 in - ()
Month to date snowfall 0.0 0.0  
Since 1 June snowfall 0.0 0.0  
Since 1 July snowfall 35.2 29.0  
Snow Depth 0.00 in    
Sea Level Pressure  
Sea Level Pressure 29.67 in    
Wind  
Wind Speed 14 mph (SSE)    
Max Wind Speed 29 mph    
Max Gust Speed 36 mph    
Visibility 10 miles    
Events Rain , Thunderstorm    
T = Trace of Precipitation, MM = Missing Value Source: NWS Daily Summary

Daily Weather History Graph

Daily Weather History Graph

Search for Another Location

Airport:

Trip Planner

Search our weather history database for the weather conditions in past years. The results will help you decide how hot, cold, wet, or windy it might be!

Date:

Astronomy

Jun. 11, 2013 Rise Set
Actual Time 6:00 AM CDT 9:05 PM CDT
Civil Twilight 5:27 AM CDT 9:38 PM CDT
Nautical Twilight 4:44 AM CDT 10:21 PM CDT
Astronomical Twilight 3:54 AM CDT 11:11 PM CDT
Moon 8:46 AM CDT (6/11) 11:07 PM CDT (6/11)
Length of Visible Light 16h 11m
Length of Day
15h 04m
Waxing Crescent, 8% of the Moon is Illuminated
Jun 11
Waxing Crescent
Jun 16
First Quarter
Jun 23
Full
Jun 29
Last Quarter
Jul 8
New

Hourly Weather History & Observations

Time (CDT) Temp. Heat Index Dew Point Humidity Pressure Visibility Wind Dir Wind Speed Gust Speed Precip Events Conditions
12:53 AM 75.0 °F - 66.0 °F 73% 29.74 in 10.0 mi ESE 5.8 mph - N/A   Clear
1:53 AM 73.0 °F - 66.0 °F 79% 29.76 in 10.0 mi Calm Calm - N/A   Clear
2:53 AM 73.0 °F - 66.9 °F 81% 29.74 in 10.0 mi East 8.1 mph - N/A   Partly Cloudy
3:04 AM 71.6 °F - 66.2 °F 83% 29.78 in 10.0 mi NNE 9.2 mph - N/A   Mostly Cloudy
3:15 AM 84.2 °F 83.5 °F 57.2 °F 40% 29.81 in 7.0 mi West 24.2 mph 32.2 mph N/A   Squalls
3:25 AM 87.8 °F - 51.8 °F 29% 29.77 in 9.0 mi West 15.0 mph 32.2 mph 0.00 in Rain Light Rain
3:37 AM 89.6 °F - 48.2 °F 24% 29.71 in 10.0 mi South 18.4 mph - 0.00 in   Mostly Cloudy
3:53 AM 89.1 °F - 48.0 °F 24% 29.65 in 10.0 mi South 9.2 mph - 0.00 in   Partly Cloudy
4:53 AM 80.1 °F 80.4 °F 57.0 °F 45% 29.67 in 10.0 mi NNW 10.4 mph - N/A   Scattered Clouds
5:39 AM 80.6 °F 80.8 °F 57.2 °F 45% 29.77 in 10.0 mi North 18.4 mph - 0.00 in Thunderstorm Thunderstorm
5:49 AM 78.8 °F - 59.0 °F 51% 29.77 in 10.0 mi NNW 12.7 mph - 0.00 in Thunderstorm Thunderstorm
5:53 AM 77.0 °F - 60.1 °F 56% 29.71 in 10.0 mi North 5.8 mph - 0.00 in Thunderstorm Mostly Cloudy
6:16 AM 89.6 °F - 48.2 °F 24% 29.74 in 10.0 mi NE 6.9 mph - N/A   Mostly Cloudy
6:53 AM 89.1 °F - 48.0 °F 24% 29.66 in 10.0 mi SSE 15.0 mph 20.7 mph N/A   Clear
7:53 AM 82.9 °F 82.6 °F 57.9 °F 42% 29.68 in 10.0 mi South 12.7 mph 21.9 mph N/A   Clear
8:53 AM 86.0 °F 85.4 °F 59.0 °F 40% 29.69 in 10.0 mi South 13.8 mph - N/A   Clear
9:53 AM 89.1 °F 88.2 °F 59.0 °F 36% 29.68 in 10.0 mi North - - N/A   Clear
10:53 AM 89.1 °F 88.2 °F 59.0 °F 36% 29.70 in 10.0 mi South 15.0 mph 24.2 mph N/A   Clear
11:53 AM 84.0 °F 84.0 °F 60.1 °F 44% 29.71 in 10.0 mi South 5.8 mph - N/A   Partly Cloudy
12:53 PM 87.1 °F 87.5 °F 62.1 °F 43% 29.72 in 10.0 mi Calm Calm - N/A   Clear
1:53 PM 91.9 °F 91.8 °F 61.0 °F 35% 29.67 in 10.0 mi SSE 12.7 mph - N/A   Clear
2:53 PM 93.9 °F 93.6 °F 60.1 °F 32% 29.67 in 10.0 mi SE 17.3 mph - N/A   Clear
3:53 PM 93.9 °F 94.0 °F 61.0 °F 33% 29.63 in 10.0 mi SSE 18.4 mph 27.6 mph N/A   Clear
4:53 PM 96.1 °F 97.3 °F 63.0 °F 33% 29.61 in 10.0 mi SE 17.3 mph 31.1 mph N/A   Clear
5:53 PM 97.0 °F 97.8 °F 62.1 °F 31% 29.59 in 10.0 mi SSE 17.3 mph 27.6 mph N/A   Clear
6:53 PM 95.0 °F 95.6 °F 62.1 °F 33% 29.55 in 10.0 mi SSE 25.3 mph 34.5 mph N/A   Clear
7:53 PM 91.9 °F 92.5 °F 62.1 °F 37% 29.55 in 10.0 mi SSE 20.7 mph 31.1 mph N/A   Clear
8:53 PM 89.1 °F 90.0 °F 63.0 °F 42% 29.54 in 10.0 mi South 19.6 mph 27.6 mph 0.00 in   Clear
9:53 PM 87.1 °F 87.0 °F 61.0 °F 41% 29.54 in 10.0 mi South 18.4 mph 27.6 mph N/A   Clear
10:53 PM 84.9 °F 84.8 °F 60.1 °F 43% 29.56 in 10.0 mi South 19.6 mph 32.2 mph N/A   Clear
11:53 PM 84.0 °F 84.4 °F 61.0 °F 46% 29.55 in 10.0 mi South 20.7 mph 31.1 mph N/A   Clear